When you browse on this site, cookies collect data to enhance your experience and personalize the content and advertising you see.
Visit our Privacy Policy to learn more. By continuing to use the site, you agree to this use of cookies and data.
  • In Austria
  • List of Countries
  • For 7 days
  • Water Temperature
  • Weather Map
  • News
  • Weather Widgets
  • user-avatar
    Login

    Hourly Weather Tizayuca

    Today, 23 October, Wednesday

    Time Temperature Precipitation Wind Pressure Humidity
    00:00 +14°C° 0.4 mm 2 mps 582 mmHg 88%
    01:00 +14°C° 0.4 mm 2 mps 581 mmHg 89%
    02:00 +14°C° 0.4 mm 2 mps 581 mmHg 90%
    03:00 +14°C° 0.1 mm 1 mps 581 mmHg 90%
    04:00 +14°C° 0.1 mm 1 mps 581 mmHg 90%
    05:00 +14°C° 0.1 mm 1 mps 581 mmHg 90%
    06:00 +14°C° 0 mm 1 mps 581 mmHg 85%
    07:00 +15°C° 0 mm 1 mps 582 mmHg 80%
    08:00 +16°C° 0 mm 1 mps 583 mmHg 75%
    09:00 +17°C° 0 mm 2 mps 583 mmHg 69%
    10:00 +18°C° 0 mm 2 mps 583 mmHg 62%
    11:00 +20°C° 0 mm 2 mps 583 mmHg 55%
    12:00 +20°C° 0 mm 3 mps 582 mmHg 55%
    13:00 +20°C° 0 mm 4 mps 582 mmHg 54%
    14:00 +21°C° 0 mm 4 mps 581 mmHg 53%
    15:00 +20°C° 0 mm 4 mps 581 mmHg 59%
    16:00 +19°C° 0 mm 4 mps 581 mmHg 64%
    17:00 +18°C° 0 mm 3 mps 580 mmHg 69%
    18:00 +17°C° 0 mm 3 mps 580 mmHg 74%
    19:00 +16°C° 0 mm 3 mps 581 mmHg 79%
    20:00 +15°C° 0 mm 2 mps 581 mmHg 84%
    21:00 +14°C° 0 mm 2 mps 580 mmHg 85%
    22:00 +14°C° 0 mm 1 mps 580 mmHg 85%
    23:00 +14°C° 0 mm 1 mps 580 mmHg 86%

    Tomorrow, 24 October, Thursday

    Time Temperature Precipitation Wind Pressure Humidity
    00:00 +13°C° 0 mm 1 mps 579 mmHg 87%
    01:00 +13°C° 0 mm 1 mps 579 mmHg 87%
    02:00 +13°C° 0 mm 1 mps 579 mmHg 88%
    03:00 +13°C° 0 mm 1 mps 579 mmHg 89%
    04:00 +11°C° 0 mm 0 mps 578 mmHg 90%
    05:00 +11°C° 0 mm 0 mps 578 mmHg 91%
    06:00 +12°C° 0 mm 0 mps 579 mmHg 85%
    07:00 +14°C° 0 mm 0 mps 580 mmHg 79%
    08:00 +15°C° 0 mm 0 mps 581 mmHg 74%
    09:00 +19°C° 0 mm 1 mps 581 mmHg 66%
    10:00 +20°C° 0 mm 1 mps 582 mmHg 59%
    11:00 +22°C° 0 mm 1 mps 582 mmHg 51%
    12:00 +23°C° 0 mm 2 mps 582 mmHg 50%
    13:00 +22°C° 0 mm 3 mps 581 mmHg 48%
    14:00 +23°C° 0 mm 4 mps 581 mmHg 46%
    15:00 +21°C° 0.2 mm 3 mps 580 mmHg 53%
    16:00 +20°C° 0.2 mm 3 mps 580 mmHg 61%
    17:00 +19°C° 0.2 mm 3 mps 580 mmHg 68%
    18:00 +18°C° 0.5 mm 2 mps 580 mmHg 73%
    19:00 +17°C° 0.5 mm 2 mps 580 mmHg 77%
    20:00 +16°C° 0.5 mm 2 mps 580 mmHg 81%
    21:00 +16°C° 0.2 mm 2 mps 580 mmHg 83%
    22:00 +16°C° 0.2 mm 1 mps 580 mmHg 84%
    23:00 +15°C° 0.2 mm 1 mps 580 mmHg 85%

    Day after tomorrow, 25 October, Friday

    Time Temperature Precipitation Wind Pressure Humidity
    00:00 +15°C° 0.1 mm 1 mps 580 mmHg 86%
    01:00 +15°C° 0.1 mm 1 mps 579 mmHg 86%
    02:00 +14°C° 0.1 mm 0 mps 579 mmHg 87%
    03:00 +14°C° 0.1 mm 1 mps 579 mmHg 87%
    04:00 +14°C° 0.1 mm 1 mps 579 mmHg 87%
    05:00 +14°C° 0.1 mm 1 mps 580 mmHg 87%
    06:00 +15°C° 0 mm 1 mps 580 mmHg 83%
    07:00 +16°C° 0 mm 1 mps 581 mmHg 79%
    08:00 +18°C° 0 mm 1 mps 582 mmHg 75%
    09:00 +18°C° 0 mm 2 mps 582 mmHg 67%
    10:00 +20°C° 0 mm 3 mps 583 mmHg 60%
    11:00 +21°C° 0 mm 3 mps 583 mmHg 53%
    12:00 +21°C° 0.1 mm 4 mps 583 mmHg 54%
    13:00 +21°C° 0.1 mm 4 mps 582 mmHg 55%
    14:00 +21°C° 0.1 mm 4 mps 582 mmHg 56%
    15:00 +19°C° 0.4 mm 4 mps 581 mmHg 63%
    16:00 +17°C° 0.4 mm 5 mps 581 mmHg 70%
    17:00 +15°C° 0.4 mm 5 mps 580 mmHg 78%
    18:00 +14°C° 0.2 mm 4 mps 581 mmHg 79%
    19:00 +14°C° 0.2 mm 4 mps 581 mmHg 80%
    20:00 +13°C° 0.2 mm 3 mps 581 mmHg 80%
    21:00 +13°C° 1.1 mm 3 mps 581 mmHg 82%
    22:00 +14°C° 1.1 mm 2 mps 581 mmHg 84%
    23:00 +13°C° 1.1 mm 1 mps 581 mmHg 86%

    26 October, Saturday

    Time Temperature Precipitation Wind Pressure Humidity
    00:00 +13°C° 0.3 mm 1 mps 581 mmHg 86%
    01:00 +13°C° 0.3 mm 1 mps 581 mmHg 86%
    02:00 +13°C° 0.3 mm 1 mps 580 mmHg 85%
    03:00 +13°C° 0 mm 1 mps 580 mmHg 85%
    04:00 +13°C° 0 mm 1 mps 580 mmHg 85%
    05:00 +13°C° 0 mm 1 mps 580 mmHg 86%
    06:00 +14°C° 0.1 mm 1 mps 581 mmHg 82%
    07:00 +14°C° 0.1 mm 1 mps 581 mmHg 78%
    08:00 +15°C° 0.1 mm 1 mps 582 mmHg 75%
    09:00 +18°C° 0 mm 1 mps 582 mmHg 69%
    10:00 +19°C° 0 mm 1 mps 582 mmHg 63%
    11:00 +21°C° 0 mm 1 mps 582 mmHg 57%
    12:00 +21°C° 0 mm 1 mps 582 mmHg 54%
    13:00 +22°C° 0 mm 1 mps 582 mmHg 51%
    14:00 +23°C° 0 mm 2 mps 582 mmHg 48%
    15:00 +21°C° 0.8 mm 2 mps 581 mmHg 57%
    16:00 +19°C° 0.8 mm 3 mps 581 mmHg 66%
    17:00 +18°C° 0.8 mm 3 mps 581 mmHg 74%
    18:00 +17°C° 1.4 mm 2 mps 581 mmHg 77%
    19:00 +17°C° 1.4 mm 2 mps 581 mmHg 80%
    20:00 +16°C° 1.4 mm 1 mps 581 mmHg 83%
    21:00 +16°C° 0.4 mm 1 mps 581 mmHg 82%
    22:00 +16°C° 0.4 mm 1 mps 581 mmHg 81%
    23:00 +15°C° 0.4 mm 1 mps 581 mmHg 80%

    27 October, Sunday

    Time Temperature Precipitation Wind Pressure Humidity
    00:00 +15°C° 0 mm 1 mps 580 mmHg 81%
    01:00 +14°C° 0 mm 0 mps 580 mmHg 82%
    02:00 +13°C° 0 mm 0 mps 579 mmHg 83%
    03:00 +13°C° 0 mm 0 mps 579 mmHg 83%
    04:00 +13°C° 0 mm 0 mps 579 mmHg 83%
    05:00 +13°C° 0 mm 0 mps 579 mmHg 83%
    06:00 +14°C° 0 mm 0 mps 580 mmHg 77%
    07:00 +15°C° 0 mm 0 mps 581 mmHg 72%
    08:00 +17°C° 0 mm 0 mps 581 mmHg 67%
    09:00 +18°C° 0 mm 0 mps 582 mmHg 62%
    10:00 +21°C° 0 mm 1 mps 582 mmHg 56%
    11:00 +23°C° 0 mm 1 mps 582 mmHg 51%
    12:00 +23°C° 0.1 mm 2 mps 582 mmHg 50%
    13:00 +23°C° 0.1 mm 2 mps 582 mmHg 49%
    14:00 +24°C° 0.1 mm 3 mps 581 mmHg 48%
    15:00 +21°C° 0.7 mm 3 mps 581 mmHg 55%
    16:00 +20°C° 0.7 mm 3 mps 580 mmHg 63%
    17:00 +19°C° 0.7 mm 3 mps 580 mmHg 71%
    18:00 +18°C° 0.6 mm 3 mps 580 mmHg 73%
    19:00 +17°C° 0.6 mm 2 mps 581 mmHg 75%
    20:00 +17°C° 0.6 mm 2 mps 581 mmHg 77%
    21:00 +17°C° 0 mm 2 mps 581 mmHg 77%
    22:00 +16°C° 0 mm 1 mps 581 mmHg 77%
    23:00 +16°C° 0 mm 1 mps 580 mmHg 77%

    28 October, Monday

    Time Temperature Precipitation Wind Pressure Humidity
    00:00 +16°C° 0 mm 1 mps 580 mmHg 77%
    01:00 +15°C° 0 mm 1 mps 580 mmHg 77%
    02:00 +15°C° 0 mm 1 mps 580 mmHg 77%
    03:00 +14°C° 0 mm 1 mps 580 mmHg 77%
    04:00 +14°C° 0 mm 1 mps 580 mmHg 77%
    05:00 +14°C° 0 mm 1 mps 579 mmHg 77%
    06:00 +15°C° 0 mm 1 mps 580 mmHg 70%
    07:00 +18°C° 0 mm 1 mps 581 mmHg 63%
    08:00 +19°C° 0 mm 1 mps 583 mmHg 55%
    09:00 +20°C° 0 mm 1 mps 583 mmHg 51%
    10:00 +21°C° 0 mm 2 mps 583 mmHg 46%
    11:00 +22°C° 0 mm 3 mps 584 mmHg 41%
    12:00 +22°C° 0 mm 4 mps 583 mmHg 45%
    13:00 +21°C° 0 mm 5 mps 582 mmHg 48%
    14:00 +21°C° 0 mm 6 mps 582 mmHg 52%
    15:00 +19°C° 0 mm 6 mps 581 mmHg 58%
    16:00 +17°C° 0 mm 5 mps 581 mmHg 64%
    17:00 +15°C° 0 mm 5 mps 581 mmHg 70%
    18:00 +15°C° 0 mm 4 mps 581 mmHg 71%
    19:00 +14°C° 0 mm 4 mps 582 mmHg 73%
    20:00 +13°C° 0 mm 3 mps 582 mmHg 74%
    21:00 +13°C° 0 mm 3 mps 582 mmHg 75%
    22:00 +13°C° 0 mm 3 mps 582 mmHg 75%
    23:00 +14°C° 0 mm 2 mps 582 mmHg 76%

    29 October, Tuesday

    Time Temperature Precipitation Wind Pressure Humidity
    00:00 +14°C° 0 mm 2 mps 582 mmHg 77%
    01:00 +14°C° 0 mm 2 mps 582 mmHg 78%
    02:00 +14°C° 0 mm 2 mps 581 mmHg 80%
    03:00 +13°C° 0 mm 2 mps 581 mmHg 80%
    04:00 +13°C° 0 mm 2 mps 581 mmHg 81%
    05:00 +13°C° 0 mm 2 mps 581 mmHg 82%
    06:00 +13°C° 0 mm 2 mps 582 mmHg 79%
    07:00 +14°C° 0 mm 2 mps 582 mmHg 76%
    08:00 +13°C° 0 mm 3 mps 583 mmHg 72%
    09:00 +15°C° 0 mm 2 mps 583 mmHg 69%
    10:00 +16°C° 0 mm 2 mps 583 mmHg 65%
    11:00 +17°C° 0 mm 2 mps 584 mmHg 61%
    12:00 +18°C° 0 mm 2 mps 583 mmHg 59%
    13:00 +19°C° 0 mm 3 mps 583 mmHg 58%
    14:00 +19°C° 0 mm 3 mps 582 mmHg 56%
    15:00 +18°C° 0 mm 3 mps 582 mmHg 61%
    16:00 +17°C° 0 mm 3 mps 582 mmHg 66%
    17:00 +16°C° 0 mm 3 mps 582 mmHg 71%
    18:00 +14°C° 0 mm 3 mps 582 mmHg 75%
    19:00 +13°C° 0 mm 3 mps 582 mmHg 79%
    20:00 +13°C° 0 mm 2 mps 582 mmHg 83%
    21:00 +13°C° 0 mm 2 mps 582 mmHg 82%
    22:00 +13°C° 0 mm 2 mps 581 mmHg 82%
    23:00 +12°C° 0 mm 2 mps 581 mmHg 82%
    Show more